Weather History for Santa Fe, NM

Change the Weather History Date:

Wednesday, January 15, 2014

  Actual Average Record
Temperature  
Mean Temperature 32 °F -  
Max Temperature 48 °F 47 °F 57 °F (2000)
Min Temperature 16 °F 22 °F 1 °F (2013)
Degree Days  
Heating Degree Days 33    
Moisture  
Dew Point 12 °F    
Average Humidity 48    
Maximum Humidity 77    
Minimum Humidity 22    
Precipitation  
Precipitation 0.00 in - - ()
Sea Level Pressure  
Sea Level Pressure 30.31 in    
Wind  
Wind Speed 6 mph (NNW)    
Max Wind Speed 12 mph    
Max Gust Speed -    
Visibility 10 miles    
Events      
Averages and records for this station are not official NWS values.
T = Trace of Precipitation, MM = Missing Value Source: NWS Daily Summary

Daily Weather History Graph

Daily Weather History Graph

Search for Another Location

Airport:

Trip Planner

Search our weather history database for the weather conditions in past years. The results will help you decide how hot, cold, wet, or windy it might be!

Date:

Astronomy

Jan. 15, 2014 Rise Set
Actual Time 7:13 AM MST 5:14 PM MST
Civil Twilight 6:45 AM MST 5:42 PM MST
Nautical Twilight 6:14 AM MST 6:13 PM MST
Astronomical Twilight 5:43 AM MST 6:44 PM MST
Moon 5:12 PM MST (1/15) 6:32 AM MST (1/15)
Length of Visible Light 10h 56m
Length of Day
10h 01m
Full, 100% of the Moon is Illuminated
Jan 15
Full
Jan 15
Full
Jan 23
Last Quarter
Jan 30
New
Feb 6
First Quarter

Hourly Weather History & Observations

Time (MST) Temp. Windchill Dew Point Humidity Pressure Visibility Wind Dir Wind Speed Gust Speed Precip Events Conditions
12:53 AM 25.0 °F - 10.9 °F 55% 30.37 in 10.0 mi Calm Calm - N/A   Clear
1:53 AM 21.9 °F 17.2 °F 10.9 °F 63% 30.37 in 10.0 mi ENE 3.5 mph - N/A   Clear
2:53 AM 16.0 °F 4.4 °F 10.0 °F 77% 30.40 in 10.0 mi North 9.2 mph - N/A   Clear
3:53 AM 18.0 °F 8.7 °F 10.0 °F 71% 30.38 in 10.0 mi NNE 6.9 mph - N/A   Clear
4:53 AM 19.9 °F 9.3 °F 12.9 °F 74% 30.38 in 10.0 mi North 9.2 mph - N/A   Clear
5:53 AM 19.9 °F 12.1 °F 10.9 °F 68% 30.38 in 10.0 mi North 5.8 mph - N/A   Clear
6:53 AM 19.0 °F 11.1 °F 10.9 °F 71% 30.43 in 10.0 mi ENE 5.8 mph - N/A   Clear
7:53 AM 19.9 °F 12.1 °F 10.9 °F 68% 30.44 in 10.0 mi NNE 5.8 mph - N/A   Clear
8:53 AM 27.0 °F 19.5 °F 10.9 °F 51% 30.43 in 10.0 mi North 6.9 mph - N/A   Clear
9:53 AM 32.0 °F 24.8 °F 12.0 °F 44% 30.41 in 10.0 mi North 8.1 mph - N/A   Clear
10:53 AM 36.0 °F 28.0 °F 10.9 °F 36% 30.36 in 10.0 mi North 11.5 mph - N/A   Clear
11:53 AM 39.0 °F 34.8 °F 12.0 °F 33% 30.33 in 4.0 mi WNW 5.8 mph - N/A   Haze
12:53 PM 43.0 °F 36.8 °F 10.0 °F 26% 30.26 in 10.0 mi NW 11.5 mph - N/A   Clear
1:53 PM 46.0 °F 41.0 °F 10.9 °F 24% 30.23 in 10.0 mi North 10.4 mph - N/A   Clear
2:53 PM 48.0 °F - 10.9 °F 22% 30.24 in 10.0 mi North 10.4 mph - N/A   Clear
3:53 PM 48.0 °F - 10.9 °F 22% 30.21 in 10.0 mi NNW 8.1 mph - N/A   Clear
4:53 PM 44.1 °F 40.1 °F 10.9 °F 26% 30.20 in 10.0 mi WNW 6.9 mph - N/A   Clear
5:53 PM 35.1 °F 29.3 °F 10.9 °F 37% 30.24 in 10.0 mi West 6.9 mph - N/A   Clear
6:53 PM 34.0 °F 29.8 °F 12.0 °F 40% 30.24 in 10.0 mi WNW 4.6 mph - N/A   Clear
7:53 PM 30.0 °F 21.7 °F 12.0 °F 47% 30.27 in 10.0 mi North 9.2 mph - N/A   Clear
8:53 PM 30.0 °F 24.1 °F 12.9 °F 49% 30.23 in 10.0 mi NW 5.8 mph - N/A   Clear
9:53 PM 35.1 °F 27.9 °F 14.0 °F 42% 30.18 in 10.0 mi North 9.2 mph - N/A   Clear
10:53 PM 30.9 °F 23.5 °F 14.0 °F 50% 30.19 in 10.0 mi NNW 8.1 mph - N/A   Clear
11:53 PM 28.0 °F 20.0 °F 14.0 °F 56% 30.18 in 10.0 mi WNW 8.1 mph - N/A   Clear